• In Hungary
  • List of Countries
  • For 7 days
  • Water Temperature
  • Satellite Maps
  • Weather Map
  • News
  • Weather Widgets
  • user-avatar
    Login

    Hourly Weather Sada

    Today, 19 October, Friday

    Time Temperature Precipitation Wind Pressure Humidity
    00:00 +17°C° 0.3 mm 2 mps 571 mmHg 56%
    01:00 +17°C° 0.2 mm 2 mps 571 mmHg 56%
    02:00 +16°C° 0.2 mm 2 mps 571 mmHg 57%
    03:00 +16°C° 0 mm 1 mps 570 mmHg 59%
    04:00 +15°C° 0 mm 1 mps 571 mmHg 59%
    05:00 +15°C° 0 mm 1 mps 571 mmHg 60%
    06:00 +15°C° 0 mm 1 mps 571 mmHg 61%
    07:00 +15°C° 0 mm 1 mps 571 mmHg 58%
    08:00 +16°C° 0 mm 1 mps 572 mmHg 56%
    09:00 +18°C° 0 mm 1 mps 572 mmHg 53%
    10:00 +19°C° 0 mm 1 mps 572 mmHg 50%
    11:00 +20°C° 0 mm 1 mps 573 mmHg 47%
    12:00 +20°C° 0 mm 1 mps 573 mmHg 44%
    13:00 +20°C° 0.1 mm 1 mps 573 mmHg 44%
    14:00 +20°C° 0.1 mm 2 mps 572 mmHg 45%
    15:00 +20°C° 0.1 mm 2 mps 572 mmHg 45%
    16:00 +19°C° 0.6 mm 2 mps 572 mmHg 49%
    17:00 +19°C° 0.6 mm 2 mps 572 mmHg 52%
    18:00 +18°C° 0.6 mm 2 mps 571 mmHg 56%
    19:00 +18°C° 1.6 mm 2 mps 572 mmHg 58%
    20:00 +19°C° 1.6 mm 1 mps 572 mmHg 60%
    21:00 +18°C° 1.6 mm 1 mps 572 mmHg 61%
    22:00 +18°C° 0.6 mm 1 mps 572 mmHg 60%
    23:00 +17°C° 0.6 mm 2 mps 572 mmHg 58%

    Tomorrow, 20 October, Saturday

    Time Temperature Precipitation Wind Pressure Humidity
    00:00 +17°C° 0.6 mm 2 mps 572 mmHg 56%
    01:00 +17°C° 0.5 mm 2 mps 572 mmHg 56%
    02:00 +18°C° 0.5 mm 1 mps 572 mmHg 56%
    03:00 +18°C° 0.5 mm 1 mps 571 mmHg 55%
    04:00 +16°C° 0.3 mm 1 mps 571 mmHg 56%
    05:00 +16°C° 0.3 mm 2 mps 572 mmHg 56%
    06:00 +16°C° 0.3 mm 2 mps 572 mmHg 56%
    07:00 +17°C° 0.1 mm 2 mps 572 mmHg 53%
    08:00 +17°C° 0.1 mm 2 mps 573 mmHg 51%
    09:00 +18°C° 0.1 mm 2 mps 573 mmHg 48%
    10:00 +18°C° 0.3 mm 2 mps 573 mmHg 47%
    11:00 +19°C° 0.3 mm 2 mps 573 mmHg 45%
    12:00 +19°C° 0.3 mm 2 mps 573 mmHg 43%
    13:00 +19°C° 0.6 mm 2 mps 573 mmHg 45%
    14:00 +19°C° 0.6 mm 2 mps 573 mmHg 46%
    15:00 +19°C° 0.6 mm 2 mps 572 mmHg 48%
    16:00 +19°C° 0.9 mm 2 mps 572 mmHg 50%
    17:00 +18°C° 0.9 mm 2 mps 572 mmHg 52%
    18:00 +19°C° 0.9 mm 1 mps 572 mmHg 53%
    19:00 +18°C° 1.2 mm 2 mps 572 mmHg 54%
    20:00 +18°C° 1.2 mm 2 mps 572 mmHg 55%
    21:00 +18°C° 1.2 mm 2 mps 573 mmHg 56%
    22:00 +17°C° 0.6 mm 2 mps 573 mmHg 56%
    23:00 +17°C° 0.6 mm 2 mps 572 mmHg 56%

    Day after tomorrow, 21 October, Sunday

    Time Temperature Precipitation Wind Pressure Humidity
    00:00 +17°C° 0.6 mm 2 mps 572 mmHg 55%
    01:00 +18°C° 0.4 mm 1 mps 572 mmHg 56%
    02:00 +18°C° 0.4 mm 1 mps 572 mmHg 56%
    03:00 +16°C° 0.4 mm 1 mps 571 mmHg 56%
    04:00 +16°C° 0.3 mm 1 mps 572 mmHg 56%
    05:00 +16°C° 0.3 mm 1 mps 572 mmHg 56%
    06:00 +16°C° 0.3 mm 1 mps 572 mmHg 56%
    07:00 +16°C° 0.4 mm 1 mps 572 mmHg 54%
    08:00 +18°C° 0.4 mm 1 mps 573 mmHg 52%
    09:00 +18°C° 0.4 mm 1 mps 573 mmHg 49%
    10:00 +19°C° 0.4 mm 1 mps 573 mmHg 48%
    11:00 +19°C° 0.4 mm 1 mps 573 mmHg 47%
    12:00 +19°C° 0.4 mm 1 mps 573 mmHg 46%
    13:00 +18°C° 0.5 mm 2 mps 573 mmHg 47%
    14:00 +18°C° 0.5 mm 2 mps 572 mmHg 47%
    15:00 +18°C° 0.5 mm 2 mps 572 mmHg 48%
    16:00 +18°C° 0.3 mm 2 mps 572 mmHg 49%
    17:00 +18°C° 0.3 mm 2 mps 572 mmHg 51%
    18:00 +17°C° 0.3 mm 2 mps 572 mmHg 52%
    19:00 +18°C° 0.1 mm 1 mps 572 mmHg 53%
    20:00 +18°C° 0.1 mm 1 mps 572 mmHg 54%
    21:00 +18°C° 0.1 mm 1 mps 573 mmHg 54%
    22:00 +18°C° 0 mm 1 mps 572 mmHg 55%
    23:00 +18°C° 0 mm 1 mps 572 mmHg 56%

    22 October, Monday

    Time Temperature Precipitation Wind Pressure Humidity
    00:00 +16°C° 0 mm 1 mps 572 mmHg 56%
    01:00 +16°C° 0 mm 1 mps 572 mmHg 56%
    02:00 +16°C° 0 mm 1 mps 572 mmHg 57%
    03:00 +16°C° 0 mm 1 mps 571 mmHg 57%
    04:00 +15°C° 0 mm 1 mps 571 mmHg 56%
    05:00 +15°C° 0 mm 1 mps 571 mmHg 55%
    06:00 +15°C° 0 mm 1 mps 572 mmHg 55%
    07:00 +16°C° 0 mm 1 mps 572 mmHg 50%
    08:00 +17°C° 0 mm 2 mps 573 mmHg 46%
    09:00 +18°C° 0 mm 2 mps 574 mmHg 42%
    10:00 +19°C° 0 mm 2 mps 574 mmHg 40%
    11:00 +20°C° 0 mm 2 mps 574 mmHg 38%
    12:00 +21°C° 0 mm 2 mps 574 mmHg 36%
    13:00 +21°C° 0.5 mm 2 mps 574 mmHg 37%
    14:00 +21°C° 0.5 mm 2 mps 573 mmHg 38%
    15:00 +21°C° 0.5 mm 2 mps 573 mmHg 39%
    16:00 +20°C° 0.6 mm 3 mps 573 mmHg 43%
    17:00 +20°C° 0.6 mm 3 mps 572 mmHg 46%
    18:00 +19°C° 0.6 mm 3 mps 572 mmHg 49%
    19:00 +19°C° 0.8 mm 3 mps 573 mmHg 49%
    20:00 +18°C° 0.8 mm 3 mps 573 mmHg 49%
    21:00 +18°C° 0.8 mm 3 mps 573 mmHg 49%
    22:00 +18°C° 0.4 mm 3 mps 573 mmHg 48%
    23:00 +18°C° 0.4 mm 3 mps 573 mmHg 48%

    23 October, Tuesday

    Time Temperature Precipitation Wind Pressure Humidity
    00:00 +17°C° 0.4 mm 3 mps 573 mmHg 48%
    01:00 +17°C° 0.2 mm 2 mps 572 mmHg 48%
    02:00 +17°C° 0.2 mm 2 mps 572 mmHg 48%
    03:00 +17°C° 0.2 mm 2 mps 572 mmHg 48%
    04:00 +16°C° 0 mm 2 mps 572 mmHg 48%
    05:00 +16°C° 0 mm 1 mps 572 mmHg 48%
    06:00 +15°C° 0 mm 1 mps 572 mmHg 48%
    07:00 +16°C° 0 mm 2 mps 573 mmHg 44%
    08:00 +17°C° 0 mm 2 mps 573 mmHg 39%
    09:00 +18°C° 0 mm 2 mps 574 mmHg 35%
    10:00 +19°C° 0 mm 2 mps 574 mmHg 33%
    11:00 +20°C° 0 mm 2 mps 574 mmHg 31%
    12:00 +21°C° 0 mm 2 mps 574 mmHg 29%
    13:00 +21°C° 0.1 mm 2 mps 574 mmHg 30%
    14:00 +22°C° 0.1 mm 3 mps 574 mmHg 32%
    15:00 +22°C° 0.1 mm 3 mps 573 mmHg 33%
    16:00 +21°C° 0.2 mm 3 mps 573 mmHg 37%
    17:00 +20°C° 0.2 mm 3 mps 573 mmHg 42%
    18:00 +19°C° 0.2 mm 3 mps 573 mmHg 46%
    19:00 +19°C° 0.1 mm 3 mps 573 mmHg 46%
    20:00 +18°C° 0.1 mm 3 mps 573 mmHg 47%
    21:00 +18°C° 0.1 mm 3 mps 573 mmHg 47%
    22:00 +18°C° 0.2 mm 3 mps 573 mmHg 48%
    23:00 +17°C° 0.2 mm 2 mps 573 mmHg 48%

    24 October, Wednesday

    Time Temperature Precipitation Wind Pressure Humidity
    00:00 +17°C° 0.2 mm 2 mps 572 mmHg 48%
    01:00 +17°C° 0 mm 2 mps 572 mmHg 49%
    02:00 +16°C° 0 mm 2 mps 572 mmHg 49%
    03:00 +16°C° 0 mm 1 mps 571 mmHg 49%
    04:00 +16°C° 0 mm 1 mps 571 mmHg 50%
    05:00 +15°C° 0 mm 1 mps 572 mmHg 51%
    06:00 +15°C° 0 mm 1 mps 572 mmHg 52%
    07:00 +16°C° 0 mm 2 mps 572 mmHg 49%
    08:00 +17°C° 0 mm 2 mps 573 mmHg 46%
    09:00 +18°C° 0 mm 2 mps 574 mmHg 43%
    10:00 +19°C° 0 mm 2 mps 574 mmHg 40%
    11:00 +20°C° 0 mm 2 mps 574 mmHg 36%
    12:00 +21°C° 0 mm 2 mps 574 mmHg 33%
    13:00 +21°C° 0 mm 2 mps 573 mmHg 33%
    14:00 +21°C° 0 mm 2 mps 573 mmHg 34%
    15:00 +22°C° 0 mm 3 mps 573 mmHg 35%
    16:00 +21°C° 0.4 mm 3 mps 573 mmHg 41%
    17:00 +20°C° 0.4 mm 3 mps 572 mmHg 46%
    18:00 +19°C° 0.4 mm 2 mps 572 mmHg 52%
    19:00 +19°C° 0.4 mm 2 mps 572 mmHg 52%
    20:00 +18°C° 0.4 mm 2 mps 572 mmHg 53%
    21:00 +18°C° 0.4 mm 2 mps 573 mmHg 54%
    22:00 +18°C° 0.3 mm 2 mps 572 mmHg 55%
    23:00 +17°C° 0.3 mm 2 mps 572 mmHg 55%
    Show more